IU1JVO-13 Weather Reports


time (UTC)temp
C
wind
direction
speed
KPH
gust
KPH
rain 1hr
cm
rain 24hr
cm
rain mn
cm
humidity
%
barometer
mb
20260506185406 15 83 3.2 12.9 0.00 0.89 0.89 43 1010.9
20260506185237 15 59 3.2 12.9 0.00 0.89 0.89 43 1010.7
20260506185140 15 349 3.2 11.3 0.00 0.89 0.89 43 1010.7
20260506184635 15 284 3.2 16.1 0.00 0.89 0.89 43 1010.9
20260506184237 15 277 3.2 16.1 0.00 0.89 0.89 43 1010.9
20260506183905 15 261 3.2 16.1 0.00 0.89 0.89 42 1010.8
20260506183638 15 250 3.2 20.9 0.00 0.89 0.89 42 1010.7
20260506183237 15 232 4.8 20.9 0.00 0.89 0.89 42 1010.7
20260506182906 15 227 4.8 20.9 0.00 0.89 0.89 41 1010.8
20260506182638 15 238 6.4 20.9 0.00 0.89 0.89 42 1010.5
20260506182237 15 243 6.4 20.9 0.00 0.89 0.89 42 1010.5
20260506181905 16 237 6.4 22.5 0.00 0.89 0.89 40 1010.5
20260506181406 15 260 6.4 22.5 0.00 0.89 0.89 42 1010.4
20260506181238 15 274 6.4 22.5 0.00 0.89 0.89 42 1010.3
20260506181138 16 262 6.4 22.5 0.00 0.89 0.89 43 1010.4
20260506180406 16 256 8.0 22.5 0.00 0.89 0.89 42 1009.9
20260506180237 16 257 6.4 22.5 0.00 0.89 0.89 42 1010.1
20260506175906 16 278 4.8 22.5 0.00 0.89 0.89 42 1009.9
20260506175406 15 352 1.6 11.3 0.00 0.89 0.89 43 1009.9
20260506175237 15 341 1.6 11.3 0.00 0.89 0.89 43 1009.8
20260506174905 16 340 1.6 11.3 0.00 0.89 0.89 43 1009.9
20260506174406 16 56 3.2 11.3 0.00 0.89 0.89 41 1009.7
20260506174236 16 53 3.2 16.1 0.00 0.89 0.89 41 1009.8
20260506173906 16 55 3.2 19.3 0.00 0.89 0.89 40 1009.9
20260506173638 16 177 3.2 19.3 0.00 0.89 0.89 41 1009.9
20260506173238 16 234 4.8 19.3 0.00 0.89 0.89 41 1010.0
20260506172906 16 240 6.4 22.5 0.00 0.89 0.89 40 1010.0
20260506172406 17 241 8.0 25.7 0.00 0.89 0.89 39 1009.8
20260506172237 17 227 8.0 25.7 0.00 0.89 0.89 39 1009.7
20260506171907 17 220 9.7 27.4 0.00 0.89 0.89 38 1009.8
20260506171407 17 232 11.3 27.4 0.00 0.89 0.89 38 1009.8
20260506171238 17 236 9.7 27.4 0.00 0.89 0.89 38 1009.9
20260506170907 17 241 9.7 27.4 0.00 0.89 0.89 39 1009.7
20260506170634 17 239 6.4 27.4 0.00 0.89 0.89 38 1009.6
20260506170238 17 245 6.4 27.4 0.00 0.89 0.89 39 1009.7
20260506165907 17 254 4.8 27.4 0.00 0.89 0.89 39 1009.7
20260506165405 17 219 6.4 27.4 0.00 0.89 0.89 39 1009.7
20260506165238 17 131 6.4 27.4 0.00 0.89 0.89 40 1009.7
20260506164906 17 157 9.7 27.4 0.00 0.89 0.89 40 1009.7
20260506164406 18 164 8.0 27.4 0.00 0.89 0.89 40 1009.4
20260506164237 18 180 6.4 27.4 0.00 0.89 0.89 39 1009.5
20260506164142 18 181 4.8 25.7 0.00 0.89 0.89 42 1009.6
20260506163406 18 203 8.0 25.7 0.00 0.89 0.89 40 1009.5
20260506163237 18 200 8.0 25.7 0.00 0.89 0.89 40 1009.4
20260506162906 18 181 6.4 25.7 0.00 0.89 0.89 40 1009.2
20260506162406 18 157 4.8 11.3 0.00 0.89 0.89 52 1009.2
20260506162237 18 169 4.8 11.3 0.00 0.89 0.89 57 1009.2
20260506162136 18 199 4.8 11.3 0.00 0.89 0.89 56 1009.2
20260506161407 18 142 3.2 11.3 0.00 0.89 0.89 57 1009.0
20260506161238 18 66 1.6 11.3 0.00 0.89 0.89 57 1009.1
20260506160907 18 23 3.2 12.9 0.00 0.89 0.89 58 1009.1
20260506160407 18 45 4.8 12.9 0.00 0.89 0.89 58 1008.9
20260506160239 18 69 4.8 12.9 0.00 0.89 0.89 58 1008.9
20260506155907 18 115 4.8 12.9 0.00 0.89 0.89 57 1008.8
20260506155643 18 118 4.8 12.9 0.00 0.89 0.89 57 1008.9
20260506155240 18 106 4.8 12.9 0.00 0.89 0.89 55 1008.9
20260506154907 18 54 4.8 12.9 0.00 0.89 0.89 57 1009.0
20260506154407 18 27 3.2 12.9 0.00 0.89 0.89 56 1009.1
20260506154238 18 48 4.8 12.9 0.00 0.89 0.89 54 1009.1
20260506153906 18 90 4.8 12.9 0.00 0.89 0.89 43 1009.0
20260506153645 18 100 4.8 12.9 0.00 0.89 0.89 44 1009.0
20260506153237 18 90 4.8 12.9 0.00 0.89 0.89 44 1009.1
20260506152905 18 68 3.2 11.3 0.00 0.89 0.89 46 1008.9
20260506152405 18 52 3.2 11.3 0.00 0.89 0.89 50 1009.2
20260506152237 18 59 4.8 11.3 0.00 0.89 0.89 49 1009.2
20260506151909 18 98 3.2 11.3 0.00 0.89 0.89 54 1009.0
20260506151905 19 195 3.2 11.3 0.00 0.89 0.89 50 1009.3
20260506151237 20 210 3.2 11.3 0.00 0.89 0.89 40 1009.4
20260506150904 20 222 3.2 11.3 0.00 0.89 0.89 36 1009.4
20260506150423 19 226 4.8 19.3 0.00 0.89 0.89 37 1009.3
20260506150417 19 226 4.8 14.5 0.00 0.89 0.89 36 1009.4
20260506150402 19 227 4.8 14.5 0.00 0.89 0.89 36 1009.3
20260506145400 19 235 6.4 19.3 0.00 0.89 0.89 37 1009.2
20260506145237 19 231 6.4 24.1 0.00 0.89 0.89 36 1009.2
20260506144901 19 230 6.4 24.1 0.00 0.89 0.89 36 1009.2
20260506144400 19 229 8.0 24.1 0.00 0.89 0.89 38 1009.2
20260506144237 19 228 8.0 24.1 0.00 0.89 0.89 38 1009.2
20260506144137 18 231 9.7 25.7 0.00 0.89 0.89 37 1009.0
20260506143400 18 248 9.7 25.7 0.00 0.89 0.89 40 1009.1
20260506143238 18 253 9.7 25.7 0.00 0.89 0.89 40 1009.3
20260506142858 18 249 9.7 40.2 0.00 0.89 0.89 40 1009.1
20260506142357 17 234 11.3 40.2 0.00 0.89 0.89 41 1009.0
20260506142236 17 232 12.9 40.2 0.00 0.89 0.89 41 1009.3
20260506141855 17 232 14.5 40.2 0.00 0.89 0.89 39 1009.3
20260506141356 18 237 14.5 40.2 0.00 0.89 0.89 37 1009.5
20260506141238 18 233 14.5 40.2 0.00 0.89 0.89 39 1009.4
20260506140855 18 239 11.3 22.5 0.00 0.89 0.89 40 1009.4
20260506140356 18 244 9.7 22.5 0.00 0.89 0.89 41 1009.5
20260506140238 18 251 9.7 22.5 0.00 0.89 0.89 41 1009.6
20260506135855 18 256 8.0 19.3 0.00 0.89 0.89 42 1009.6
20260506135356 18 257 8.0 24.1 0.00 0.89 0.89 41 1009.6
20260506135237 19 259 8.0 24.1 0.00 0.89 0.89 43 1009.6
20260506134855 19 251 9.7 24.1 0.00 0.89 0.89 40 1009.5
20260506134356 19 245 11.3 24.1 0.00 0.89 0.89 39 1009.5
20260506134237 19 241 11.3 24.1 0.00 0.89 0.89 37 1009.4
20260506133857 19 239 11.3 24.1 0.00 0.89 0.89 37 1009.3
20260506133355 20 239 9.7 20.9 0.00 0.89 0.89 38 1009.1
20260506133241 20 242 8.0 20.9 0.00 0.89 0.89 38 1009.1
20260506132855 20 246 9.7 20.9 0.00 0.89 0.89 38 1009.2
20260506132356 20 231 8.0 17.7 0.00 0.89 0.89 39 1009.3
20260506132237 20 228 6.4 17.7 0.00 0.89 0.89 39 1009.3
20260506131855 20 218 4.8 17.7 0.00 0.89 0.89 40 1009.5
20260506131356 19 229 6.4 17.7 0.00 0.89 0.89 39 1009.5
20260506131236 19 227 8.0 19.3 0.00 0.89 0.89 38 1009.4
20260506130855 18 233 9.7 19.3 0.00 0.89 0.89 43 1009.5
20260506130355 19 236 8.0 19.3 0.00 0.89 0.89 44 1009.7
20260506130238 19 238 9.7 19.3 0.00 0.89 0.89 46 1009.7
20260506125855 18 212 8.0 19.3 0.00 0.89 0.89 46 1009.5
20260506125356 18 95 4.8 19.3 0.00 0.89 0.89 59 1009.7
20260506125235 18 80 4.8 12.9 0.00 0.89 0.89 58 1009.4
20260506124855 17 67 3.2 12.9 0.00 0.89 0.89 64 1009.4
20260506124356 17 119 4.8 12.9 0.00 0.89 0.89 65 1009.4
20260506124235 17 130 4.8 12.9 0.00 0.89 0.89 66 1009.4
20260506123856 17 131 6.4 12.9 0.00 0.89 0.89 65 1009.3
20260506123356 17 101 6.4 12.9 0.00 0.89 0.89 66 1009.2
20260506123235 16 35 6.4 16.1 0.00 0.89 0.89 66 1009.3
20260506122855 16 0 4.8 16.1 0.00 0.89 0.89 66 1009.5
20260506122356 16 19 3.2 16.1 0.00 0.89 0.89 65 1009.1
20260506122233 16 23 3.2 16.1 0.00 0.89 0.89 65 1009.0
20260506121856 16 60 4.8 16.1 0.00 0.89 0.89 65 1009.0
20260506121356 16 108 4.8 16.1 0.00 0.89 0.89 66 1008.8
20260506121233 16 127 4.8 14.5 0.00 0.89 0.89 65 1008.9
20260506120856 16 199 4.8 14.5 0.00 0.89 0.89 66 1009.0
20260506120356 16 102 6.4 14.5 0.00 0.89 0.89 65 1009.1
20260506120233 16 98 4.8 14.5 0.00 0.89 0.89 65 1008.9
20260506115856 17 96 4.8 24.1 0.00 0.89 0.89 64 1008.9
20260506115356 17 69 4.8 24.1 0.00 0.89 0.89 63 1009.0
20260506115232 17 54 6.4 24.1 0.00 0.89 0.89 64 1009.0
20260506114855 16 34 9.7 24.1 0.00 0.89 0.89 64 1008.9
20260506114626 16 10 11.3 24.1 0.00 0.89 0.89 64 1008.6
20260506114232 16 14 9.7 24.1 0.00 0.89 0.89 65 1008.6
20260506113855 17 45 8.0 24.1 0.00 0.89 0.89 65 1008.4
20260506113356 17 79 6.4 24.1 0.00 0.89 0.89 63 1008.6
20260506113233 17 89 8.0 24.1 0.00 0.89 0.89 63 1008.7
20260506112857 17 312 6.4 24.1 0.00 0.89 0.89 63 1008.6
20260506112356 17 79 8.0 24.1 0.00 0.89 0.89 64 1008.3
20260506112232 17 81 6.4 24.1 0.00 0.89 0.89 65 1008.4
20260506111856 17 98 6.4 12.9 0.00 0.89 0.89 63 1008.8
20260506111356 17 140 4.8 14.5 0.00 0.89 0.89 61 1008.8
20260506111232 17 112 4.8 14.5 0.00 0.89 0.89 63 1008.6
20260506110856 17 94 4.8 14.5 0.00 0.89 0.89 64 1008.7
20260506110356 17 102 6.4 14.5 0.00 0.89 0.89 63 1008.6
20260506110237 17 127 4.8 14.5 0.00 0.89 0.89 64 1008.7
20260506105909 17 169 3.2 6.4 0.00 0.89 0.89 61 1008.9
20260506105904 17 138 4.8 14.5 0.00 0.89 0.89 62 1009.0
20260506105232 17 176 3.2 6.4 0.00 0.89 0.89 61 1008.9
20260506104856 17 210 1.6 6.4 0.00 0.89 0.89 62 1009.1
20260506104355 17 231 3.2 6.4 0.00 0.89 0.89 61 1009.1
20260506104233 17 231 1.6 6.4 0.00 0.89 0.89 62 1009.3
20260506103856 17 235 3.2 6.4 0.00 0.89 0.89 62 1009.1
20260506103357 16 204 4.8 6.4 0.00 0.89 0.89 62 1009.1
20260506103232 16 191 4.8 6.4 0.00 0.89 0.89 62 1009.1
20260506102856 16 163 6.4 6.4 0.00 0.89 0.89 66 1009.1
20260506102400 16 148 3.2 6.4 0.00 0.89 0.89 68 1009.3
20260506102232 16 164 3.2 6.4 0.00 0.89 0.89 68 1009.2
20260506101856 16 281 3.2 6.4 0.00 0.89 0.89 68 1009.4
20260506101353 15 263 3.2 6.4 0.00 0.89 0.89 68 1009.2
20260506101231 15 261 3.2 6.4 0.00 0.89 0.89 67 1009.2
20260506101126 15 247 3.2 11.3 0.00 0.89 0.89 69 1009.2
20260506100354 15 241 3.2 11.3 0.00 0.89 0.89 68 1009.2
20260506100231 15 247 4.8 11.3 0.00 0.89 0.89 71 1009.2
20260506095852 15 243 4.8 11.3 0.00 0.89 0.89 70 1009.3
20260506095231 15 185 3.2 11.3 0.00 0.89 0.89 70 1009.5
20260506094850 15 113 1.6 8.0 0.00 0.89 0.89 71 1009.3
20260506094349 15 112 0.0 6.4 0.00 0.89 0.89 70 1009.5
20260506094231 15 115 0.0 6.4 0.00 0.89 0.89 70 1009.5
20260506093845 15 97 1.6 6.4 0.00 0.91 0.89 70 1009.6
20260506093618 15 88 3.2 6.4 0.00 0.91 0.89 72 1009.7
20260506093231 15 89 3.2 8.0 0.00 0.91 0.89 70 1009.8
20260506092847 15 168 1.6 8.0 0.00 0.91 0.89 71 1009.7
20260506092346 15 240 3.2 8.0 0.00 0.91 0.89 72 1009.7
20260506092231 14 244 3.2 8.0 0.00 0.91 0.89 74 1009.8
20260506091846 14 245 3.2 8.0 0.00 0.91 0.89 74 1009.8
20260506091346 15 249 3.2 8.0 0.00 0.91 0.89 72 1009.8
20260506091230 14 255 3.2 4.8 0.00 0.91 0.89 72 1009.9
20260506090854 13 271 4.8 4.8 0.00 0.91 0.89 79 1009.7
20260506090847 14 262 3.2 4.8 0.00 0.91 0.89 75 1009.8
20260506090231 13 271 4.8 4.8 0.00 0.91 0.89 79 1009.7
20260506090121 13 270 4.8 4.8 0.00 0.91 0.89 79 1009.8
20260506085346 13 245 3.2 6.4 0.00 0.91 0.89 79 1009.7
20260506085231 13 241 3.2 6.4 0.00 0.91 0.89 79 1009.7
20260506084845 13 232 1.6 6.4 0.00 0.91 0.89 79 1009.7
20260506084619 12 238 1.6 6.4 0.00 0.91 0.89 81 1009.6
20260506084229 12 238 1.6 6.4 0.03 0.91 0.89 81 1009.6
20260506083846 12 234 3.2 9.7 0.03 0.91 0.89 82 1009.7
20260506083346 12 239 3.2 9.7 0.05 0.91 0.89 84 1009.6
20260506083232 12 241 3.2 9.7 0.05 0.91 0.89 85 1009.8
20260506082846 12 245 4.8 9.7 0.05 0.91 0.89 85 1009.8
20260506082345 11 240 4.8 9.7 0.05 0.91 0.89 86 1009.8
20260506082229 11 241 4.8 9.7 0.05 0.91 0.89 86 1009.7
20260506081845 11 243 4.8 9.7 0.05 0.91 0.89 88 1009.8
20260506081346 11 248 4.8 9.7 0.05 0.91 0.89 88 1009.7
20260506081228 11 246 4.8 9.7 0.05 0.91 0.89 88 1009.7
20260506080845 11 241 4.8 8.0 0.05 0.91 0.89 90 1009.7
20260506080353 11 239 3.2 8.0 0.05 0.91 0.89 89 1010.0
20260506080348 11 236 3.2 8.0 0.05 0.91 0.89 89 1009.8
20260506080341 11 237 3.2 8.0 0.05 0.91 0.89 89 1009.9
20260506073348 11 9 0.0 3.2 0.03 0.89 0.86 89 1009.5
20260506073231 11 7 0.0 3.2 0.03 0.89 0.86 89 1009.5
20260506072844 10 357 1.6 3.2 0.03 0.89 0.86 89 1009.4
20260506072344 11 308 0.0 3.2 0.00 0.86 0.84 89 1009.6
20260506072229 11 294 0.0 3.2 0.00 0.86 0.84 89 1009.6
20260506072113 11 268 0.0 3.2 0.00 0.86 0.84 89 1009.6
20260506071401 11 193 0.0 4.8 0.00 0.86 0.84 89 1009.5
20260506071356 11 239 0.0 3.2 0.00 0.86 0.84 89 1009.6
20260506071340 11 227 0.0 3.2 0.00 0.86 0.84 89 1009.6
20260506070342 11 189 0.0 4.8 0.00 0.86 0.84 90 1009.8
20260506070229 11 190 0.0 4.8 0.00 0.86 0.84 90 1009.7
20260506062341 10 136 1.6 3.2 0.05 0.86 0.84 93 1009.6
20260506062228 10 139 1.6 3.2 0.08 0.89 0.84 92 1009.7
20260506061841 10 150 0.0 4.8 0.10 0.89 0.84 92 1009.7
20260506061343 10 134 0.0 4.8 0.15 0.89 0.84 92 1009.5
20260506061231 10 129 0.0 4.8 0.15 0.89 0.84 93 1009.6
20260506061108 10 135 0.0 4.8 0.18 0.89 0.84 93 1009.6
20260506060338 10 142 1.6 4.8 0.23 0.89 0.84 92 1009.7
20260506060227 10 151 1.6 4.8 0.25 0.89 0.84 93 1009.7
20260506051339 10 39 4.8 14.5 0.51 0.74 0.71 92 1009.6
20260506051228 10 32 6.4 14.5 0.51 0.74 0.71 92 1009.6
20260506050837 10 33 6.4 14.5 0.51 0.71 0.66 93 1009.4
20260506050336 10 62 3.2 14.5 0.43 0.64 0.61 93 1009.4
20260506050227 10 80 3.2 14.5 0.43 0.61 0.61 93 1009.5
20260506044835 10 125 3.2 9.7 0.33 0.51 0.48 93 1009.6
20260506044355 10 112 3.2 8.0 0.28 0.43 0.41 92 1009.5
20260506044346 10 123 3.2 9.7 0.33 0.48 0.43 92 1009.6
20260506044332 10 122 3.2 8.0 0.33 0.48 0.43 92 1009.7
20260506043605 10 130 1.6 9.7 0.23 0.41 0.36 92 1009.6
20260506043228 10 120 1.6 9.7 0.23 0.41 0.33 92 1009.7
20260506043112 10 132 1.6 9.7 0.18 0.38 0.30 92 1009.6
20260506042349 10 62 3.2 12.9 0.10 0.36 0.23 93 1009.7
20260506042342 10 68 3.2 9.7 0.15 0.38 0.25 92 1009.7
20260506042328 10 76 3.2 9.7 0.13 0.38 0.23 93 1009.7
20260506041337 10 49 3.2 12.9 0.05 0.36 0.18 93 1009.7
20260506041227 10 42 3.2 12.9 0.05 0.36 0.18 93 1009.8
20260506040836 10 33 4.8 12.9 0.05 0.36 0.15 93 1009.7
20260506040335 10 58 4.8 12.9 0.05 0.41 0.15 93 1009.8
20260506040228 10 61 3.2 12.9 0.05 0.38 0.15 93 1009.8
20260506035837 10 80 3.2 9.7 0.05 0.41 0.15 93 1009.8
20260506035336 10 155 1.6 6.4 0.05 0.41 0.13 93 1009.8
20260506035230 10 150 1.6 6.4 0.05 0.41 0.13 93 1009.8
20260506034836 10 144 1.6 6.4 0.05 0.43 0.13 93 1009.8
20260506034336 10 120 1.6 9.7 0.05 0.46 0.13 93 1009.9
20260506034227 10 125 1.6 11.3 0.05 0.46 0.13 93 1009.9
20260506033836 10 163 1.6 11.3 0.05 0.48 0.13 93 1010.0
20260506033337 10 160 1.6 11.3 0.05 0.51 0.13 93 1010.0
20260506033227 10 157 1.6 11.3 0.05 0.51 0.13 93 1010.0
20260506032837 10 120 3.2 11.3 0.05 0.51 0.13 93 1010.1
20260506032337 10 97 1.6 11.3 0.05 0.53 0.13 93 1010.0
20260506032227 10 100 1.6 8.0 0.05 0.53 0.13 93 1010.1
20260506031837 10 116 0.0 8.0 0.05 0.56 0.13 93 1010.1
20260506031335 10 151 1.6 8.0 0.05 0.58 0.13 93 1010.4
20260506031227 10 132 1.6 8.0 0.05 0.58 0.13 93 1010.4
20260506030835 10 129 3.2 8.0 0.03 0.56 0.10 93 1010.4
20260506030615 10 157 1.6 8.0 0.03 0.58 0.10 93 1010.5
20260506030228 10 170 1.6 8.0 0.03 0.61 0.10 93 1010.5
20260506025836 10 145 1.6 6.4 0.00 0.58 0.08 93 1010.6
20260506025336 10 131 1.6 6.4 0.00 0.61 0.08 93 1010.7
20260506025226 10 135 1.6 6.4 0.00 0.61 0.08 93 1010.8
20260506024835 10 137 1.6 6.4 0.03 0.61 0.08 93 1010.8
20260506024336 10 94 0.0 4.8 0.03 0.64 0.08 93 1010.8
20260506024227 10 59 1.6 4.8 0.03 0.64 0.08 93 1010.9
20260506023837 10 346 1.6 6.4 0.05 0.66 0.08 93 1011.0
20260506023336 10 329 1.6 6.4 0.05 0.69 0.08 93 1010.9
20260506023227 10 327 1.6 6.4 0.05 0.71 0.08 93 1011.0
20260506022836 10 328 1.6 6.4 0.05 0.71 0.08 93 1010.9
20260506022336 10 321 1.6 6.4 0.05 0.71 0.08 93 1010.9
20260506022227 10 322 1.6 6.4 0.05 0.74 0.08 93 1011.0
20260506021836 10 334 1.6 4.8 0.05 0.74 0.08 93 1011.2
20260506021336 10 43 1.6 4.8 0.05 0.76 0.08 93 1011.2
20260506021228 10 75 1.6 4.8 0.05 0.76 0.08 93 1011.2
20260506020836 10 137 0.0 6.4 0.05 0.79 0.08 93 1011.4
20260506020337 10 142 0.0 6.4 0.05 0.79 0.08 93 1011.4
20260506020227 10 140 1.6 6.4 0.05 0.79 0.08 93 1011.4
20260506015832 10 128 1.6 6.4 0.05 0.79 0.08 93 1011.5
20260506015333 10 137 1.6 6.4 0.05 0.79 0.08 93 1011.6
20260506015226 10 133 1.6 6.4 0.05 0.79 0.08 93 1011.6
20260506014833 10 140 0.0 4.8 0.03 0.79 0.05 93 1011.6
20260506014332 10 131 0.0 4.8 0.03 0.79 0.05 93 1011.5
20260506014228 10 133 0.0 4.8 0.03 0.79 0.05 93 1011.5
20260506013831 10 128 1.6 4.8 0.00 0.76 0.05 93 1011.5
20260506013331 10 119 0.0 4.8 0.00 0.76 0.05 93 1011.5
20260506013225 10 119 0.0 4.8 0.00 0.76 0.05 93 1011.5
20260506012833 10 133 0.0 4.8 0.00 0.76 0.05 93 1011.6
20260506012331 10 144 0.0 4.8 0.03 0.76 0.05 93 1011.6
20260506012226 10 152 1.6 4.8 0.03 0.76 0.05 93 1011.6
20260506011831 10 156 0.0 4.8 0.03 0.76 0.05 93 1011.6
20260506011331 10 152 0.0 6.4 0.03 0.76 0.05 93 1011.8
20260506011225 10 144 0.0 6.4 0.03 0.76 0.05 93 1011.8
20260506011103 10 82 0.0 6.4 0.03 0.76 0.05 93 1011.8
20260506010331 10 86 1.6 6.4 0.03 0.76 0.05 93 1012.0
20260506010223 10 100 1.6 6.4 0.03 0.76 0.05 93 1012.0
20260506010104 10 130 1.6 6.4 0.03 0.76 0.05 93 1012.1
20260506005608 10 131 1.6 6.4 0.03 0.76 0.05 92 1012.3
20260506005223 10 136 1.6 6.4 0.03 0.76 0.05 92 1012.4
20260506005103 10 138 1.6 6.4 0.05 0.76 0.05 92 1012.4
20260506004332 10 130 1.6 8.0 0.05 0.76 0.05 92 1012.5
20260506004224 10 129 1.6 8.0 0.05 0.76 0.05 92 1012.6
20260506003830 10 124 1.6 8.0 0.05 0.76 0.05 92 1012.7
20260506003326 10 123 1.6 8.0 0.05 0.76 0.05 92 1012.9
20260506003222 10 119 1.6 8.0 0.05 0.76 0.05 92 1012.9
20260506003058 10 110 1.6 8.0 0.05 0.76 0.05 92 1012.9
20260506002326 10 98 1.6 6.4 0.03 0.74 0.03 92 1012.9
20260506002222 10 91 1.6 6.4 0.03 0.74 0.03 92 1013.0
20260506001826 10 112 1.6 6.4 0.03 0.74 0.03 92 1013.1
20260506001325 10 133 1.6 4.8 0.03 0.74 0.03 92 1013.1
20260506001222 10 138 1.6 4.8 0.03 0.74 0.03 92 1013.2
20260506001059 10 127 0.0 3.2 0.03 0.74 0.03 92 1013.2
20260506000326 10 29 0.0 1.6 0.03 0.74 0.03 92 1013.1
20260506000223 10 16 0.0 1.6 0.03 0.74 0.03 92 1013.2
20260506000058 10 3 0.0 1.6 0.03 0.74 0.03 92 1013.2
20260505235324 10 2 0.0 1.6 0.03 0.74 0.03 92 1013.3
20260505235223 10 2 0.0 1.6 0.03 0.74 0.03 92 1013.3
20260505234822 10 5 0.0 1.6 0.00 0.71 0.00 92 1013.3
20260505234322 10 18 0.0 3.2 0.00 0.71 0.00 91 1013.3
20260505234221 10 21 0.0 3.2 0.00 0.71 0.00 91 1013.4
20260505233821 10 29 0.0 3.2 0.00 0.71 0.00 91 1013.3
20260505233320 10 24 0.0 4.8 0.00 0.71 0.00 91 1013.4
20260505233221 10 21 0.0 4.8 0.00 0.71 0.00 91 1013.5
20260505232818 10 21 0.0 4.8 0.00 0.71 0.00 91 1013.7
20260505232318 10 82 1.6 4.8 0.00 0.71 0.00 91 1013.7
20260505232221 10 98 1.6 4.8 0.00 0.71 0.00 91 1013.7
20260505231819 10 121 1.6 4.8 0.00 0.71 0.00 91 1013.7
20260505231318 10 123 0.0 4.8 0.00 0.71 0.00 91 1013.7
20260505231220 10 122 0.0 4.8 0.00 0.71 0.00 91 1013.7
20260505230817 10 132 1.6 4.8 0.00 0.71 0.00 91 1014.0
20260505230330 10 124 0.0 1.6 0.00 0.71 0.00 91 1014.0
20260505230325 10 134 0.0 4.8 0.00 0.71 0.00 91 1013.9
20260505230317 10 133 0.0 3.2 0.00 0.71 0.00 91 1013.9
20260505225318 10 121 0.0 1.6 0.00 0.71 0.00 91 1013.9
20260505225221 10 124 0.0 1.6 0.00 0.71 0.00 91 1013.9
20260505224817 10 136 0.0 1.6 0.00 0.71 0.00 91 1013.9
20260505224315 10 144 0.0 1.6 0.00 0.71 0.00 90 1013.9
20260505224221 10 144 0.0 1.6 0.00 0.71 0.00 90 1013.9
20260505223816 10 144 0.0 0.0 0.00 0.71 0.00 90 1013.9
20260505223317 10 144 0.0 1.6 0.00 0.71 0.00 91 1013.8
20260505223221 10 144 0.0 1.6 0.00 0.71 0.00 91 1013.8
20260505222832 10 144 0.0 1.6 0.00 0.71 0.00 91 1013.9
20260505222601 10 147 0.0 1.6 0.00 0.71 0.00 90 1013.9
20260505222315 10 148 0.0 1.6 0.00 0.71 0.00 90 1013.9
20260505221316 10 157 0.0 1.6 0.00 0.71 0.00 90 1014.1
20260505221219 10 151 0.0 1.6 0.00 0.71 0.00 90 1014.1
20260505220816 10 121 0.0 3.2 0.00 0.71 0.00 90 1014.2
20260505220314 10 79 0.0 4.8 0.00 0.71 0.00 90 1014.2
20260505220217 10 80 0.0 4.8 0.00 0.71 0.00 91 1014.2
20260505215813 10 101 0.0 4.8 0.00 0.71 0.71 91 1014.2
20260505215312 11 123 1.6 4.8 0.00 0.71 0.71 91 1014.3
20260505215218 11 123 1.6 4.8 0.00 0.71 0.71 91 1014.3
20260505215039 11 84 1.6 4.8 0.00 0.71 0.71 91 1014.3
20260505214311 11 33 0.0 3.2 0.00 0.71 0.71 91 1014.3
20260505214217 11 34 0.0 3.2 0.00 0.71 0.71 91 1014.3
20260505213813 11 87 0.0 3.2 0.00 0.74 0.71 91 1014.3
20260505213311 11 148 0.0 3.2 0.00 0.74 0.71 91 1014.3
20260505213217 11 156 0.0 3.2 0.00 0.74 0.71 91 1014.3
20260505213044 11 180 0.0 1.6 0.00 0.74 0.71 91 1014.2
20260505212310 11 257 0.0 1.6 0.00 0.76 0.71 91 1014.3
20260505212216 11 267 0.0 1.6 0.00 0.76 0.71 91 1014.3
20260505211810 11 284 0.0 0.0 0.00 0.76 0.71 91 1014.4
20260505211309 11 283 0.0 0.0 0.00 0.79 0.71 91 1014.4
20260505211215 11 283 0.0 0.0 0.00 0.79 0.71 91 1014.4
20260505210810 11 282 0.0 0.0 0.00 0.79 0.71 91 1014.6
20260505210310 11 282 0.0 0.0 0.00 0.81 0.71 91 1014.6
20260505210215 11 282 0.0 0.0 0.00 0.84 0.71 91 1014.6
20260505205810 11 282 0.0 0.0 0.00 0.84 0.71 91 1014.6
20260505205309 11 282 0.0 0.0 0.00 0.86 0.71 91 1014.7
20260505205215 11 282 0.0 1.6 0.00 0.86 0.71 91 1014.7
20260505205046 11 282 0.0 1.6 0.00 0.89 0.71 91 1014.7
20260505204310 11 282 0.0 1.6 0.00 0.89 0.71 91 1014.7
20260505204218 11 283 0.0 1.6 0.00 0.89 0.71 91 1014.7
20260505203814 11 318 0.0 1.6 0.00 0.89 0.71 91 1014.8
20260505203308 11 5 0.0 1.6 0.00 0.89 0.71 90 1014.7
20260505203215 11 9 0.0 0.0 0.00 0.89 0.71 90 1014.7
20260505202808 11 9 0.0 0.0 0.00 0.89 0.71 90 1014.7
20260505202308 11 9 0.0 0.0 0.00 0.89 0.71 90 1014.7
20260505202216 11 9 0.0 0.0 0.00 0.89 0.71 90 1014.7
20260505201809 11 9 0.0 0.0 0.00 0.89 0.71 90 1014.6
20260505201308 11 9 0.0 0.0 0.00 0.91 0.71 90 1014.6
20260505201215 11 9 0.0 0.0 0.00 0.91 0.71 90 1014.6
20260505200806 11 9 0.0 0.0 0.00 0.94 0.71 90 1014.6
20260505200306 11 9 0.0 0.0 0.00 0.97 0.71 90 1014.5
20260505200215 11 9 0.0 0.0 0.00 0.99 0.71 90 1014.5
20260505195805 11 9 0.0 0.0 0.00 1.02 0.71 90 1014.6
20260505195306 11 9 0.0 1.6 0.00 1.07 0.71 89 1014.6
20260505195214 11 9 0.0 1.6 0.00 1.07 0.71 89 1014.6
20260505194807 11 9 0.0 1.6 0.00 1.09 0.71 89 1014.5
20260505194307 11 9 0.0 1.6 0.00 1.14 0.71 89 1014.5
20260505194213 11 9 0.0 1.6 0.00 1.17 0.71 89 1014.5
20260505193806 11 8 0.0 1.6 0.00 1.17 0.71 89 1014.5
20260505193306 11 347 0.0 1.6 0.00 1.19 0.71 89 1014.5
20260505193213 11 336 0.0 1.6 0.00 1.19 0.71 89 1014.4
20260505192806 11 289 0.0 1.6 0.00 1.22 0.71 89 1014.5
20260505192539 11 272 0.0 0.0 0.00 1.24 0.71 88 1014.4
20260505192212 11 272 0.0 0.0 0.00 1.24 0.71 88 1014.4
20260505191806 11 272 0.0 1.6 0.00 1.27 0.71 88 1014.5
20260505191308 11 272 0.0 1.6 0.00 1.27 0.71 88 1014.5
20260505191211 11 272 0.0 1.6 0.00 1.27 0.71 88 1014.5
20260505190806 11 277 0.0 1.6 0.00 1.27 0.71 88 1014.6
20260505190306 11 314 0.0 3.2 0.00 1.27 0.71 88 1014.5
20260505190212 11 321 0.0 3.2 0.00 1.27 0.71 88 1014.5
20260505185806 11 335 0.0 3.2 0.00 1.27 0.71 88 1014.5